Weather History for Killeen/Ft Hood, TX

Change the Weather History Date:

Friday, October 17, 2014

  Actual Average Record
Temperature  
Mean Temperature 75 °F -  
Max Temperature 91 °F 77 °F 95 °F (2012)
Min Temperature 60 °F 58 °F 48 °F (2001)
Cooling Degree Days 10    
Growing Degree Days 25 (Base 50)    
Moisture  
Dew Point 57 °F    
Average Humidity 58    
Maximum Humidity 86    
Minimum Humidity 34    
Precipitation  
Precipitation 0.00 in - - ()
Sea Level Pressure  
Sea Level Pressure 29.91 in    
Wind  
Wind Speed 6 mph (SSE)    
Max Wind Speed 10 mph    
Max Gust Speed -    
Visibility 10 miles    
Events      
Averages and records for this station are not official NWS values.
T = Trace of Precipitation, MM = Missing Value Source: NWS Daily Summary

Daily Weather History Graph

Daily Weather History Graph

Search for Another Location

Airport:

Trip Planner

Search our weather history database for the weather conditions in past years. The results will help you decide how hot, cold, wet, or windy it might be!

Date:

Astronomy

Oct. 17, 2014 Rise Set
Actual Time 7:35 AM CDT 6:56 PM CDT
Civil Twilight 7:10 AM CDT 7:21 PM CDT
Nautical Twilight 6:42 AM CDT 7:49 PM CDT
Astronomical Twilight 6:14 AM CDT 8:17 PM CDT
Moon 2:02 AM CDT (10/17) 3:24 PM CDT (10/17)
Length of Visible Light 12h 10m
Length of Day
11h 21m
Waning Crescent, 32% of the Moon is Illuminated
Oct 17
Waning Crescent
Oct 23
New
Oct 30
First Quarter
Nov 6
Full
Nov 14
Last Quarter

Hourly Weather History & Observations

Time (CDT) Temp. Heat Index Dew Point Humidity Pressure Visibility Wind Dir Wind Speed Gust Speed Precip Events Conditions
12:56 AM 70.0 °F - 52.0 °F 53% 29.88 in 10.0 mi South 10.4 mph - N/A   Clear
1:56 AM 68.0 °F - 53.1 °F 59% 29.88 in 10.0 mi South 6.9 mph - N/A   Clear
2:56 AM 66.0 °F - 53.1 °F 63% 29.87 in 10.0 mi South 6.9 mph - N/A   Clear
3:56 AM 64.9 °F - 55.0 °F 70% 29.86 in 10.0 mi South 8.1 mph - N/A   Clear
4:56 AM 63.0 °F - 55.0 °F 75% 29.86 in 10.0 mi SSE 5.8 mph - N/A   Clear
5:56 AM 61.0 °F - 55.9 °F 83% 29.87 in 10.0 mi Calm Calm - N/A   Clear
6:56 AM 61.0 °F - 55.9 °F 83% 29.89 in 10.0 mi SE 4.6 mph - N/A   Clear
7:56 AM 60.1 °F - 55.9 °F 86% 29.92 in 10.0 mi Calm Calm - N/A   Clear
8:56 AM 66.0 °F - 57.9 °F 75% 29.94 in 10.0 mi South 3.5 mph - N/A   Clear
9:56 AM 72.0 °F - 57.0 °F 59% 29.95 in 10.0 mi South 5.8 mph - N/A   Clear
10:56 AM 77.0 °F - 57.0 °F 50% 29.97 in 10.0 mi SW 5.8 mph - N/A   Clear
11:56 AM 80.1 °F 80.4 °F 57.0 °F 45% 29.96 in 10.0 mi SSW 4.6 mph - N/A   Clear
12:56 PM 84.9 °F 84.8 °F 60.1 °F 43% 29.94 in 10.0 mi South 8.1 mph - N/A   Clear
1:56 PM 89.1 °F 88.2 °F 59.0 °F 36% 29.91 in 10.0 mi SSE 8.1 mph - N/A   Clear
2:56 PM 90.0 °F 89.1 °F 59.0 °F 35% 29.89 in 10.0 mi SE 6.9 mph - N/A   Clear
3:56 PM 90.0 °F 88.8 °F 57.9 °F 34% 29.89 in 10.0 mi South 8.1 mph - N/A   Clear
4:56 PM 88.0 °F 87.1 °F 59.0 °F 37% 29.88 in 10.0 mi SE 8.1 mph - N/A   Clear
5:56 PM 86.0 °F 85.0 °F 57.9 °F 38% 29.89 in 10.0 mi SE 9.2 mph - N/A   Clear
6:56 PM 82.0 °F 82.0 °F 57.9 °F 44% 29.90 in 10.0 mi SE 5.8 mph - N/A   Clear
7:56 PM 78.1 °F - 59.0 °F 52% 29.91 in 10.0 mi ESE 4.6 mph - N/A   Clear
8:56 PM 73.9 °F - 59.0 °F 59% 29.93 in 10.0 mi ESE 3.5 mph - N/A   Clear
9:56 PM 72.0 °F - 60.1 °F 66% 29.95 in 10.0 mi ESE 3.5 mph - N/A   Clear
10:56 PM 70.0 °F - 60.1 °F 71% 29.96 in 10.0 mi ESE 3.5 mph - N/A   Clear
11:56 PM 70.0 °F - 60.1 °F 71% 29.96 in 10.0 mi ESE 3.5 mph - N/A   Clear